STARLINK-35858, 66833

Orbit data source: Space-Track

STARLINK-35858, 66833 is a payload satellite owned by SpaceX/Seattle (US) in LEO that was launched on Tue, 02 Dec 2025 UTC via an FALCON 9 launch vehicle from the Air Force Western Test Range (AFWTR). Payload-class satellites include a variety of spacecraft equipped with specific instruments for various scientific and technological missions. These include communications satellites like Starlink; space stations such as the ISS; scientific satellites like the Hubble; Earth observation satellites from companies like Planet Labs, Umbra, and HawkEye 360; GPS; miniature CubeSats for education and research; and military/defense satellites.

Loading next visibility...
Identifier
66833, 2025-280N
Orbit
LEO
Country
Flag of USUS
Related business
Manufacturer
SpaceX/Seattle
Mission
Operational Commercial Communications
Bus & Motor
STARLINK V2MO, Unknown motor
Mass
575 kg wet, ~530 kg dry
Launch date (UTC)
2025-12-02 (7 months ago)
Launch vehicle
FALCON 9
Launch site
Air Force Western Test Range (AFWTR)
Object type
Payload
Rocket body
Debris
Shape & HBR
Box + 2 Pan, 17.7 m
Radar Cross Section
36.964 m², Large (>1 m²)

Expand to show TLE details & history
Last TLE update: 18 hours ago

TLE from 18 hours ago
0 STARLINK-35858
1 66833U 25280N   26171.14507649  .00002123  00000-0  18559-3 0  9995
2 66833  70.0013  76.0959 0002615 264.8145  95.2716 14.98344420 31428
Epoch: 2026-06-20T03:28Z
TLE epoch observation values (Epoch: 2026-06-20T03:28:54.608Z)
Latitude
-0.00001°
Longitude
115.50446°
Altitude
574.603 km
Speed
7.574 km/s
True Right ascension
05h 04m 23s
True Declination
0° 00' 00"
Sunlit
Object was in daylight at epoch
Visualization orbit readout
Latitude
Unknown
Longitude
Unknown
Altitude
Unknown
Speed
Unknown
Apparent Right ascension
Unknown
Apparent Declination
Unknown
Sunlit
N/A
Visualization observer readout
Local Sidereal Time
08:32:41
Azimuth
Unknown
Elevation
Unknown
Doppler factor
Unknown
Orbital elements
Apogee altitude
571.776 km
Perigee altitude
568.142 km
Semi-major axis
6,948.096 km
Eccentricity
0.00026
Inclination
70.0013°
RAAN
76.0959°
Arg. of periapsis
264.8145°
True anomaly
95.30144°
Mean anomaly
95.2716°
Eccentric anomaly
95.28652°
Mean motion
3.74752 °/min
Orbital period
96.06 mins
BSTAR
0.00018559
Loading maneuver chart data...
Computing Atmospheric mass density...
Loading historical data...
Loading historical data...
Loading historical data...
Loading historical data...
Loading historical data...
Loading historical data...
Loading historical data...

Documentation

Showing up to 5 results
|